Regional Weather Roundup
Issued by NWS

Home | Current Version | Previous Version | Text Only | Print | Product List | Glossary On
Versions: 1 2 3 4 5 6 7 8 9 10 11 12 13 14 15 16 17 18 19 20 21 22 23 24 25 26 27 28 29 30 31 32 33 34 35 36 37 38 39 40 41 42 43 44 45 46 47 48 49 50
000
ASUS44 KFWD 300001
RWRTX
NORTH TEXAS HOURLY WEATHER ROUNDUP
NATIONAL WEATHER SERVICE FORT WORTH TX
700 PM CDT SUN MAR 29 2015

NOTE: "FAIR" INDICATES FEW OR NO CLOUDS BELOW 12,000 FEET WITH NO
SIGNIFICANT WEATHER AND/OR OBSTRUCTIONS TO VISIBILITY.

TXZ118-119-300100-
DALLAS/FORT WORTH METROPLEX

CITY           SKY/WX    TMP DP  RH WIND       PRES   REMARKS
DFW AIRPORT    PTCLDY    80  55  42 S17       29.95S
6HR MIN TEMP:  76; 6HR MAX TEMP:  83;

DALLAS LOVE    PTCLDY    83  53  35 S13       29.96S
6HR MIN TEMP:  77; 6HR MAX TEMP:  85;

FTW MEACHAM    CLEAR     81  57  43 SE14G23   29.94S
6HR MIN TEMP:  77; 6HR MAX TEMP:  84;

DAL-EXECUTIVE  CLEAR     81  53  37 S12G21    29.97R
6HR MIN TEMP:  76; 6HR MAX TEMP:  83;

FTW-ALLIANCE   PTCLDY    81  56  42 S17       29.93F
6HR MIN TEMP:  77; 6HR MAX TEMP:  84;

FTW-NAS-JRB    CLEAR     84  57  39 SE14      29.98R
6HR MIN TEMP:  78; 6HR MAX TEMP:  87;

FTW-SPINKS     CLEAR     81  55  41 S15G23    29.97R
ARLINGTON      CLEAR     82  52  35 SE14      29.96R
6HR MIN TEMP:  77; 6HR MAX TEMP:  84;

ADDISON        CLEAR     82  52  34 S10G20    29.98R
LANCASTER      CLEAR     79  53  41 S13       30.00R
6HR MIN TEMP:  74; 6HR MAX TEMP:  81;

$$

TXZ091>094-102>105-117-120-121-131>134-300100-
NORTH CENTRAL TEXAS

CITY           SKY/WX    TMP DP  RH WIND       PRES   REMARKS
SHRMAN/DENISON CLOUDY    79  63  58 S5        30.00R
6HR MIN TEMP:  77; 6HR MAX TEMP:  83;

BRIDGEPORT     PTCLDY    81  55  40 N18G24    29.97R
6HR MIN TEMP:  79; 6HR MAX TEMP:  88;

DECATUR        PTCLDY    82  56  41 NE6       29.96R
6HR MIN TEMP:  78; 6HR MAX TEMP:  87;

DENTON         PTCLDY    82  58  43 SE13      29.94S
6HR MIN TEMP:  77; 6HR MAX TEMP:  84;

MCKINNEY       CLEAR     80  56  43 S14       29.97R
6HR MIN TEMP:  77; 6HR MAX TEMP:  83;

ROCKWALL       CLEAR     81  56  42 S12G20    29.98R
6HR MIN TEMP:  76; 6HR MAX TEMP:  83;

TERRELL        CLEAR     81  54  39 SW9       30.00R
6HR MIN TEMP:  77; 6HR MAX TEMP:  84;

WAXAHACHIE     CLEAR     79  55  42 S16       30.00R
6HR MIN TEMP:  74; 6HR MAX TEMP:  82;

CLEBURNE       CLEAR     79  57  47 SE17      29.97S
GRANBURY         N/A     85  53  32 S12G21    29.94S
6HR MIN TEMP:  81; 6HR MAX TEMP:  88;

$$

TXZ083>090-098>101-113>116-127>130-139>142-154-155-300100-
WESTERN NORTH TEXAS

CITY           SKY/WX    TMP DP  RH WIND       PRES   REMARKS
WICHITA FALLS  CLEAR     75  46  35 N21       30.02R
6HR MIN TEMP:  75; 6HR MAX TEMP:  84;

WF-KICKAPOO    SUNNY     78  46  32 N17G28    30.03R
6HR MIN TEMP:  78; 6HR MAX TEMP:  86;

VERNON         SUNNY     78  24  13 NE13      30.07R
6HR MIN TEMP:  78; 6HR MAX TEMP:  83;

ABILENE        SUNNY     80  48  32 N23G31    30.01R
6HR MIN TEMP:  80; 6HR MAX TEMP:  91;

ABILENE-DYESS  SUNNY     79  53  40 N21G30    30.01R
6HR MIN TEMP:  79; 6HR MAX TEMP:  90; 6HR PCP: TRACE;

MINERAL WELLS  PTCLDY    84  54  35 S9        29.91S
6HR MIN TEMP:  83; 6HR MAX TEMP:  90;

STEPHENVILLE   CLEAR     83  51  32 S8        29.97S
6HR MIN TEMP:  81; 6HR MAX TEMP:  88;

COMANCHE       SUNNY     83  55  37 S13G18    29.95S
6HR MIN TEMP:  82; 6HR MAX TEMP:  88;

COLEMAN        SUNNY     89  50  26 NW6       29.96R
6HR MIN TEMP:  83; 6HR MAX TEMP:  93;

BRADY          SUNNY     88  48  25 S9        29.96R
$$

TXZ143>147-156>162-174-175-300100-
CENTRAL TEXAS

CITY           SKY/WX    TMP DP  RH WIND       PRES   REMARKS
WACO           CLEAR     77  55  46 S17       29.97S
6HR MIN TEMP:  76; 6HR MAX TEMP:  82;

WACO-TSTC      CLEAR     84  52  32 S16G32    29.97
WACO-MCGREGOR  CLEAR     81  54  39 S18       29.98R
6HR MIN TEMP:  77; 6HR MAX TEMP:  84;

CORSICANA      CLEAR     80  52  37 S15       29.98S
6HR MIN TEMP:  77; 6HR MAX TEMP:  84;

MEXIA          CLEAR     79  53  41 S15G24    29.98R
6HR MIN TEMP:  76; 6HR MAX TEMP:  82;

HEARNE         CLEAR     78  56  45 SE14G29   30.02S
6HR MIN TEMP:  77; 6HR MAX TEMP:  83;

TEMPLE         CLEAR     79  54  41 S24G33    29.98R
6HR MIN TEMP:  77; 6HR MAX TEMP:  82;

KILLEEN        CLEAR     80  53  39 S15G25    29.98R
6HR MIN TEMP:  80; 6HR MAX TEMP:  85;

KILLEEN-SKYLRK CLEAR     81  54  39 MISG      29.99R
6HR MIN TEMP:  81; 6HR MAX TEMP:  84;

FORT HOOD      CLEAR     80  53  38 S18G24    29.98R
6HR MIN TEMP:  37; 6HR MAX TEMP:  86;

HAMILTON       CLEAR     83  50  32 S17G28    29.98S
6HR MIN TEMP:  81; 6HR MAX TEMP:  87;

$$

TXZ095>097-106>112-122>126-135>138-148>153-164>167-300100-
EAST TEXAS

CITY           SKY/WX    TMP DP  RH WIND       PRES   REMARKS
SULPHUR SPRNGS CLEAR     80  52  37 W13       30.02R
6HR MIN TEMP:  76; 6HR MAX TEMP:  83;

GILMER         CLEAR     80  53  39 S10G21    29.98R
6HR MIN TEMP:  75; 6HR MAX TEMP:  83;

MINEOLA        CLEAR     81  45  28 S6        30.00R
TYLER          CLEAR     80  53  39 S16G26    29.98R
6HR MIN TEMP:  78; 6HR MAX TEMP:  84;

LONGVIEW       CLEAR     80  56  43 S17G25    29.99S
6HR MIN TEMP:  78; 6HR MAX TEMP:  84;

MARSHALL         N/A     81  56  41 SW12G20   30.01F
6HR MIN TEMP:  78; 6HR MAX TEMP:  86;

ATHENS         CLEAR     79  54  41 S14G26    29.97R
PALESTINE      CLEAR     81  53  37 S14G24    30.01S
JACKSONVILLE   CLEAR     79  54  42 S13G20    30.04S
NACOGDOCHES    CLEAR     77  57  50 S13       30.05S
6HR MIN TEMP:  77; 6HR MAX TEMP:  81;

LUFKIN         CLEAR     80  59  48 S14G20    30.06R
6HR MIN TEMP:  80; 6HR MAX TEMP:  85;

$$

SUPPLEMENTAL OBSERVATIONS (CENTRAL)

CITY           SKY/WX    TMP DP  RH WIND       PRES   REMARKS
$$

SUPPLEMENTAL OBSERVATIONS (WEST)

CITY           SKY/WX    TMP DP  RH WIND       PRES   REMARKS
$$

SUPPLEMENTAL OBSERVATIONS (EAST)

CITY           SKY/WX    TMP DP  RH WIND       PRES   REMARKS
$$

SUPPLEMENTAL OBSERVATIONS ARE A COLLECTION OF AUTOMATED INSTRUMENTS
THAT ARE MAINTAINED BY A VARIETY OF FEDERAL AND STATE AGENCIES.
CERTAIN ELEMENTS...SUCH AS HUMIDITY VALUES AND SUSTAINED WIND
SPEEDS...MAY BE APPROXIMATED.




USA.gov is the U.S. government's official web portal to all federal, state and local government web resources and services.